Location: ?????
(44.4284°N, 135.2222°E)
Time: 18:11:34
(UTC+00:00)

SL-14 R/B - Pass Details

Date: 19 May 2025
Orbit: 500 x 530 km, 82.4° (Epoch: 20 June)

Event Time Altitude Azimuth Distance (km) Brightness Sun altitude
Exits shadow 15:58:57 52° 322° (NW) 651 3.8 -24.0°
Drops below altitude 10° 16:02:12 10° 2° (N) 1,765 6.9 -23.9°
Sets 16:04:23 0° 6° (N) 2,664 8.2 -23.8°
